Regional Weather Roundup
Issued by NWS

Home | Current Version | Previous Version | Graphics & Text | Print | Product List | Glossary On
Versions: 1 2 3 4 5 6 7 8 9 10 11 12 13 14 15 16 17 18 19 20 21 22 23 24 25 26 27 28 29 30 31 32 33 34 35 36 37 38 39 40 41 42 43 44 45 46 47 48 49 50
000
ASUS43 KLMK 221902
RWRKY
KENTUCKY REGIONAL WEATHER ROUNDUP
NATIONAL WEATHER SERVICE LOUISVILLE KY
300 PM EDT SUN OCT 22 2017

NOTE "FAIR" INDICATES FEW OR NO CLOUDS BELOW 12,000 FEET
WITH NO SIGNIFICANT WEATHER AND/OR OBSTRUCTIONS TO VISIBILITY.

KYZ001>023-026-027-061>063-070>075-222000-
WESTERN AND SOUTH CENTRAL KENTUCKY

CITY           SKY/WX    TMP DP  RH WIND       PRES   REMARKS
PADUCAH        CLOUDY    76  60  57 S8        29.97F
HENDERSON      CLOUDY    80  61  52 S18G25    30.00F
OWENSBORO      CLOUDY    78  61  55 S21G30    30.02F
HOPKINSVILLE   NOT AVBL
BOWLING GREEN  MOSUNNY   81  60  48 S16       30.08F
GLASGOW        NOT AVBL
$$

KYZ024-025-028>034-038-045-046-053-222000-
NORTH CENTRAL KENTUCKY

CITY           SKY/WX    TMP DP  RH WIND       PRES   REMARKS
LOUISVILLE/SDF PTSUNNY   78  56  46 S18G28    30.09F
LOUISVILLE/LOU MOSUNNY   77  58  51 S20       30.11S
FORT KNOX      NOT AVBL
$$

KYZ035>037-039>044-047>052-055>060-089>105-222000-
NORTHEAST KENTUCKY

CITY           SKY/WX    TMP DP  RH WIND       PRES   REMARKS
LEXINGTON      PTSUNNY   76  52  43 S16G26    30.15F
COVINGTON      PTSUNNY   74  57  55 S14       30.11F
FRANKFORT      CLOUDY    74  51  44 S14       30.13F
$$

KYZ054-064>069-076>088-106>120-222000-
SOUTHEAST KENTUCKY

CITY           SKY/WX    TMP DP  RH WIND       PRES   REMARKS
JACKSON        MOSUNNY   74  50  42 CALM      30.19F
LONDON         CLOUDY    75  49  39 S16G28    30.17F
SOMERSET       NOT AVBL
MIDDLESBORO    MOSUNNY   77  50  39 S5        30.20F
MONTICELLO     MOCLDY    76  58  53 SE13      30.16F
$$




USA.gov is the U.S. government's official web portal to all federal, state and local government web resources and services.